Regional Weather Roundup
Issued by NWS Huntsville, AL

Home | Current Version | Previous Version | Text Only | Print | Product List | Glossary On
Versions: 1 2 3 4 5 6 7 8 9 10 11 12 13 14 15 16 17 18 19 20 21 22 23 24 25 26 27
000
ASUS44 KHUN 272010
RWRHUN

WEATHER ROUNDUP FOR THE TENNESSEE VALLEY
NATIONAL WEATHER SERVICE HUNTSVILLE AL
300 PM CDT TUE JUN 27 2017

ALZ001>004-272100-
NORTHWEST ALABAMA

CITY           SKY/WX    TMP DP  RH WIND       PRES   REMARKS
COURTLAND HCN    N/A     79 N/A N/A E5          N/A
RUSSELLVILLE     N/A     79 N/A N/A MISG        N/A
SHOALS AIRPORT SUNNY     82  58  43 CALM      30.10S
SHOALS TVA RES   N/A     79 N/A N/A MISG        N/A
$$

ALZ005>007-016-272100-
NORTH CENTRAL ALABAMA

CITY           SKY/WX    TMP DP  RH WIND       PRES   REMARKS
CULLMAN AG STN   N/A     81 N/A N/A NE7         N/A
DECATUR AP     MOSUNNY   82  59  45 CALM      30.10S
HUNTSVILLE AP  MOSUNNY   83  58  42 N7        30.09S
MERIDIANVILLE  SUNNY     79  54  41 NW8       30.10S
VINEMONT AP    FAIR      80  56  43 CALM      30.12S
$$

ALZ008>010-272100-
NORTHEAST ALABAMA

CITY           SKY/WX    TMP DP  RH WIND       PRES   REMARKS
ALBERTVILLE    SUNNY     79  63  57 N7        30.09S
FORT PAYNE     MOSUNNY   79  54  41 N5        30.08F
SCOTTSBORO AP  SUNNY     81  55  41 NE7       30.09F
SCOTTSBORO HCN   N/A     81 N/A N/A MISG        N/A
VALLEY HEAD      N/A     79 N/A N/A MISG        N/A
$$

TNZ076-096-097-272100-
SOUTHEASTERN MIDDLE TENNESSEE

CITY           SKY/WX    TMP DP  RH WIND       PRES   REMARKS
TULLAHOMA      SUNNY     75  52  43 N5        30.12F
WINCHESTER     SUNNY     79  54  41 CALM      30.11F
$$

...SURROUNDING SITES...

CITY           SKY/WX    TMP DP  RH WIND       PRES   REMARKS
ATLANTA        MOSUNNY   84  56  38 N10       30.06F
ANNISTON       SUNNY     85  58  39 VRB6      30.06F
BIRMINGHAM     MOSUNNY   85  56  37 NE9       30.09S
CHATTANOOGA    MOSUNNY   81  50  33 N8        30.10F
CORINTH        FAIR      82  63  51 VRB7      30.08F
DALTON         SUNNY     79  55  44 NE9       30.10S
GADSDEN        SUNNY     84  61  45 VRB7      30.07F
GOLDEN TRNGL   NOT AVBL
JACKSON TN     SUNNY     82  62  50 CALM      30.09F
MEMPHIS        MOSUNNY   85  61  44 CALM      30.07F
NASHVILLE      PTSUNNY   83  55  38 E6        30.10F
OXFORD MS      FAIR      84  61  45 NE9       30.09S
ROME           SUNNY     85  57  38 N10       30.07F
SAVANNAH       SUNNY     81  61  50 VRB6      30.08F
SELMER         MOSUNNY   81  63  54 CALM      30.09S
TUPELO         MOSUNNY   85  59  41 CALM      30.06F
TUSCALOOSA     SUNNY     87  65  47 N5        30.05F
$$

...GULF COAST WEATHER...

CITY           SKY/WX    TMP DP  RH WIND       PRES   REMARKS
GULFPORT       CLOUDY    87  66  49 N10       30.00F
PASCAGOULA     CLOUDY    87  66  49 N7        30.01S
MOBILE         CLOUDY    86  68  54 NE10      30.03S
GULF SHORES    CLOUDY    83  73  72 SE3       30.00F
PENSACOLA      CLOUDY    84  71  65 SW6       30.00S
DESTIN         CLOUDY    86  75  69 SE3       30.00S HX  95
PANAMA CITY    CLOUDY    86  72  62 W6        29.98F HX  91
APPALACHICOLA  MOSUNNY   89  72  56 CALM      29.97S HX  96
$$





USA.gov is the U.S. government's official web portal to all federal, state and local government web resources and services.